Volver al catálogo

COSMOS 82

ActivoMilitarLEO
NORAD 1572·PAYLOAD·🇷🇺 Russia

Lanzado Sep 3, 1965 desde Baikonur Cosmodrome

Loading…

Próximos Pases (próximas 24 horas)

TLE

ActualizadoSource: Space-Track

Época: Sep 14, 2026, 07:43 UTC

1 01572U 65070C   26257.32221722 -.00000102  00000-0 -55818-4 0  9992
2 01572  56.0619  19.2406 0074940  20.4163   4.0709 12.45124270775306

Sigue COSMOS 82 en tiempo real con AllMySat

Download on the App Store